[[{"header":{"parameterUnit":"m.s-1","parameterCategory":1,"la1":30.2991,"la2":30.254,"lo1":-89.0895,"lo2":-89.0444,"dy":0.0017,"dx":0.0017,"nx":28,"ny":28,"refTime":"2025-12-01T03:00:00:Z","depth":0,"parameterNumber":2,"parameterNumberName":"U-component_of_WINDS"},"data":[0,0,0,0,0,0,0,0,0,0,0,0,0,0,0,0,0,0,0,0,0,0,0,0,0,0,0,0,0,0,0,0,0,0,0,0,0,0,0,0,0,0,0,0,0,0,0,0,0,0,0,0,0,0,0,0,0,0,1.2286,1.2286,0,1.2274,1.2274,1.2274,1.2257,1.2256,1.2256,1.2256,1.2242,1.2242,1.2242,0,0,0,0,0,0,0,0,0,0,0,0,0,1.2296,1.2295,1.2286,1.2286,1.2286,1.2274,1.2274,1.2274,1.2257,1.2256,1.2256,1.2256,1.2242,1.2242,1.2242,0,0,0,0,0,0,0,0,0,0,0,0,0,1.2288,1.2295,1.2286,1.2276,1.2275,1.2274,1.2274,1.2274,1.2257,1.2256,1.2256,1.2255,1.2243,1.2242,1.2242,1.225,0,0,1.2242,1.2242,0,0,0,0,0,0,0,0,1.2289,1.2288,1.2278,1.2277,1.2276,1.2266,1.2272,1.2266,1.2257,1.2264,1.2256,1.2255,1.2251,1.225,1.2248,1.2249,1.2249,1.2242,1.2242,1.2242,1.2242,0,0,0,0,0,0,0,1.2289,1.2288,1.2281,1.2278,1.2276,1.2272,1.2271,1.2271,1.226,1.2263,1.2262,1.2261,1.225,1.2249,1.2248,1.2249,1.2242,1.2242,1.2242,1.2242,1.2257,1.2257,0,0,0,0,0,0,1.2291,1.2289,1.2282,1.2281,1.2281,1.2272,1.2271,1.227,1.226,1.2258,1.2261,1.226,1.2249,1.2248,1.2248,1.2256,1.2242,1.2242,1.2242,1.2256,1.2257,1.2257,0,0,0,0,0,0,1.2291,1.2291,1.2282,1.2285,1.2283,1.2273,1.2272,1.227,1.2268,1.2258,1.2256,1.2262,1.2249,1.2248,1.225,1.2256,1.2242,1.2241,1.2256,1.2256,1.2257,1.2274,0,0,0,0,0,0,1.2292,1.2291,1.2294,1.2285,1.2283,1.2285,1.2272,1.227,1.2268,1.2267,1.2258,1.2256,1.2248,1.225,1.225,1.2255,1.2241,1.2255,1.2256,1.2257,1.2273,1.2275,1.2277,0,0,0,0,0,1.2292,1.2298,1.2294,1.2293,1.2286,1.2285,1.2284,1.2275,1.2269,1.2271,1.2265,1.2257,1.2255,1.2251,1.225,1.2255,1.2255,1.2256,1.2257,1.2272,1.2275,1.2277,0,0,0,0,0,0,1.2307,1.2297,1.2292,1.2295,1.2291,1.2282,1.2285,1.2278,1.2275,1.2274,1.2263,1.2261,1.2265,1.226,1.2255,1.2263,1.2254,1.2255,1.2265,1.2268,1.227,1.2271,1.2241,0,0,0,0,0,1.2311,1.2311,1.2302,1.2306,1.2305,1.2295,1.2294,1.2288,1.2283,1.2281,1.2275,1.2271,1.2269,1.2269,1.2267,1.2273,1.2271,1.2276,1.2278,1.228,1.2281,1.2284,1.2287,1.2261,1.2261,1.2261,0,0,1.2319,1.2314,1.2314,1.2309,1.2305,1.2306,1.2294,1.2294,1.2295,1.2281,1.2283,1.2279,1.2273,1.2277,1.2279,1.2274,1.2288,1.2282,1.2283,1.2283,1.2286,1.2288,1.229,1.2261,1.2261,1.2261,0,0,1.2333,1.2329,1.2332,1.2329,1.2323,1.2318,1.2319,1.2311,1.2307,1.2309,1.2299,1.23,1.2298,1.2294,1.2292,1.2307,1.2299,1.2307,1.2318,1.2322,1.2324,1.2325,1.2331,1.2333,1.2308,1.2308,1.2308,0,1.2343,1.2343,1.2335,1.2336,1.2335,1.2324,1.2327,1.2324,1.2318,1.2318,1.2312,1.231,1.2306,1.2309,1.2313,1.2312,1.2313,1.2307,1.2324,1.2326,1.2327,1.2332,1.2334,1.2309,1.2309,1.2309,1.2309,0,1.2356,1.2357,1.236,1.2355,1.2354,1.2356,1.2348,1.2349,1.2343,1.2338,1.234,1.2335,1.2332,1.2333,1.2327,1.2336,1.2333,1.2326,1.2316,1.2331,1.2335,1.2337,1.2311,1.231,1.231,1.231,0,0,1.2378,1.237,1.2371,1.2369,1.2363,1.2363,1.2366,1.2363,1.2364,1.2361,1.2362,1.2362,1.2356,1.2354,1.2348,1.2351,1.2364,1.2344,1.2344,1.2348,1.2373,1.2378,1.238,1.2359,1.2359,1.236,1.2374,0,1.239,1.2394,1.2387,1.2392,1.2392,1.2383,1.2385,1.2382,1.2378,1.2378,1.2373,1.2373,1.2365,1.2364,1.2367,1.2361,1.2369,1.236,1.236,1.236,1.2361,1.2383,1.2387,1.2401,1.2376,1.2376,1.2376,0,1.2405,1.2403,1.2408,1.2403,1.2403,1.2405,1.2403,1.2403,1.24,1.2397,1.2396,1.2389,1.2391,1.2383,1.2386,1.2381,1.2381,1.2379,1.2379,1.2378,1.2368,1.2382,1.2405,1.2407,1.2379,1.2379,1.2378,0,1.242,1.2419,1.2422,1.2421,1.2415,1.2417,1.2414,1.2411,1.241,1.2409,1.2408,1.2407,1.2407,1.2406,1.2399,1.2394,1.2404,1.2395,1.2401,1.2401,1.2402,1.2402,1.2425,1.2404,1.2404,1.2404,1.2404,0,1.2434,1.2437,1.2429,1.2431,1.2435,1.2427,1.2432,1.2428,1.2426,1.2427,1.2419,1.2421,1.2412,1.2413,1.2408,1.2412,1.2412,1.2409,1.2408,1.2409,1.241,1.2408,1.2407,1.2404,1.2404,1.2404,1.2404,0,1.245,1.2445,1.2448,1.2443,1.2441,1.2445,1.244,1.2442,1.2438,1.244,1.244,1.2434,1.2434,1.2428,1.2428,1.2424,1.243,1.2427,1.2431,1.243,1.2437,1.2436,1.2459,1.2462,1.2439,1.2439,1.244,0,1.2459,1.2462,1.2457,1.2458,1.2456,1.2457,1.2457,1.245,1.245,1.2448,1.245,1.245,1.245,1.2452,1.2447,1.2447,1.2443,1.2452,1.2443,1.2445,1.2443,1.2443,1.2443,1.2453,1.2453,1.2454,1.2454,0,1.2475,1.2473,1.2473,1.2473,1.2473,1.2472,1.2471,1.2472,1.2465,1.2466,1.2466,1.2466,1.2466,1.2467,1.2466,1.2464,1.2458,1.2457,1.2458,1.2459,1.2461,1.246,1.2435,1.2456,1.2456,1.2455,1.2455,1.2455,1.2488,1.249,1.2488,1.2488,1.2487,1.2487,1.2488,1.2485,1.2486,1.2485,1.2482,1.2483,1.2481,1.248,1.2478,1.248,1.2476,1.2478,1.2478,1.2479,1.248,1.2462,1.248,1.248,1.248,1.2479,1.2479,0,1.2504,1.2502,1.2503,1.2502,1.2503,1.2498,1.2497,1.2498,1.2499,1.2498,1.2498,1.25,1.2501,1.2497,1.2497,1.2499,1.2496,1.2499,1.2499,1.2498,1.2483,1.2482,1.2502,1.2502,1.2502,1.2502,1.2502,1.2502,1.2512,1.2515,1.2513,1.2516,1.2515,1.2516,1.2516,1.2516,1.2515,1.2517,1.2518,1.2516,1.2514,1.2514,1.2515,1.2514,1.2514,1.2518,1.2516,1.2502,1.2499,1.2497,1.2496,1.2518,1.2518,1.2531,1.2531,1.2531]},{"header":{"parameterUnit":"m.s-1","parameterCategory":1,"la1":30.2991,"la2":30.254,"lo1":-89.0895,"lo2":-89.0444,"dy":0.0017,"dx":0.0017,"nx":28,"ny":28,"refTime":"2025-12-01T03:00:00:Z","depth":0,"parameterNumber":3,"parameterNumberName":"V-component_of_WINDS"},"data":[0,0,0,0,0,0,0,0,0,0,0,0,0,0,0,0,0,0,0,0,0,0,0,0,0,0,0,0,0,0,0,0,0,0,0,0,0,0,0,0,0,0,0,0,0,0,0,0,0,0,0,0,0,0,0,0,0,0,-7.6259,-7.6261,0,-7.6432,-7.6434,-7.6436,-7.638,-7.6376,-7.6372,-7.6369,-7.6538,-7.6546,-7.6554,0,0,0,0,0,0,0,0,0,0,0,0,0,-7.5874,-7.5881,-7.6259,-7.6261,-7.6264,-7.6432,-7.6434,-7.6436,-7.638,-7.6376,-7.6371,-7.6367,-7.6535,-7.6545,-7.6554,0,0,0,0,0,0,0,0,0,0,0,0,0,-7.6043,-7.5884,-7.6259,-7.6256,-7.6258,-7.6431,-7.6434,-7.6437,-7.6381,-7.6376,-7.637,-7.6365,-7.6532,-7.6544,-7.6556,-7.674,0,0,-7.6592,-7.6597,0,0,0,0,0,0,0,0,-7.6034,-7.6057,-7.6254,-7.6257,-7.6259,-7.6379,-7.636,-7.6538,-7.6383,-7.6334,-7.6369,-7.6362,-7.6489,-7.6504,-7.6548,-7.6748,-7.6755,-7.6593,-7.66,-7.6605,-7.6609,0,0,0,0,0,0,0,-7.6022,-7.605,-7.6327,-7.6257,-7.626,-7.6244,-7.6262,-7.6394,-7.644,-7.6338,-7.6334,-7.6356,-7.6489,-7.6537,-7.6552,-7.6758,-7.6593,-7.6603,-7.6611,-7.6615,-7.7117,-7.7123,0,0,0,0,0,0,-7.601,-7.604,-7.6322,-7.6332,-7.6131,-7.6255,-7.6275,-7.6346,-7.6439,-7.6448,-7.636,-7.6353,-7.6519,-7.6538,-7.6558,-7.678,-7.6605,-7.6617,-7.6623,-7.7111,-7.7118,-7.7125,0,0,0,0,0,0,-7.6002,-7.6036,-7.6315,-7.6186,-7.622,-7.6268,-7.6347,-7.6352,-7.64,-7.6456,-7.6463,-7.6402,-7.6516,-7.6541,-7.6696,-7.6785,-7.6622,-7.6633,-7.7103,-7.7113,-7.7121,-7.7225,0,0,0,0,0,0,-7.5991,-7.6033,-7.6106,-7.6188,-7.6227,-7.6452,-7.6353,-7.6359,-7.6422,-7.6413,-7.6496,-7.6505,-7.6513,-7.6678,-7.6708,-7.6798,-7.6642,-7.7095,-7.7108,-7.7118,-7.7214,-7.7237,-7.7256,0,0,0,0,0,-7.5978,-7.6126,-7.611,-7.6144,-7.6319,-7.6458,-7.648,-7.6489,-7.6429,-7.6501,-7.6537,-7.6502,-7.6771,-7.6695,-7.6727,-7.6823,-7.709,-7.7104,-7.7118,-7.7204,-7.7232,-7.7256,0,0,0,0,0,0,-7.605,-7.6137,-7.6119,-7.6299,-7.6372,-7.6448,-7.6539,-7.6518,-7.6607,-7.6595,-7.6601,-7.662,-7.6779,-7.6816,-7.673,-7.7006,-7.6921,-7.6942,-7.6976,-7.7003,-7.7023,-7.701,-7.6652,0,0,0,0,0,-7.6088,-7.6196,-7.6265,-7.6417,-7.6454,-7.6491,-7.6551,-7.6553,-7.6627,-7.6656,-7.6703,-7.6775,-7.6875,-7.6941,-7.7036,-7.7219,-7.7235,-7.7301,-7.7322,-7.7339,-7.7357,-7.7455,-7.7485,-7.717,-7.717,-7.717,0,0,-7.6165,-7.6226,-7.6293,-7.6433,-7.6489,-7.6599,-7.6517,-7.6636,-7.6716,-7.6673,-7.6823,-7.686,-7.694,-7.711,-7.7187,-7.7146,-7.7447,-7.7357,-7.737,-7.7378,-7.7473,-7.7502,-7.7529,-7.718,-7.7178,-7.7176,0,0,-7.6363,-7.642,-7.6553,-7.6612,-7.6699,-7.6723,-7.6755,-7.6835,-7.6858,-7.7009,-7.6979,-7.7074,-7.7247,-7.7305,-7.7357,-7.7578,-7.7548,-7.7608,-7.7718,-7.7814,-7.7839,-7.7861,-7.7939,-7.7967,-7.7626,-7.7626,-7.7626,0,-7.6447,-7.6614,-7.6623,-7.6746,-7.6807,-7.6777,-7.691,-7.6966,-7.7079,-7.7121,-7.7074,-7.7291,-7.7342,-7.7525,-7.7579,-7.7623,-7.7658,-7.7598,-7.7835,-7.7857,-7.7878,-7.7952,-7.7981,-7.7633,-7.7632,-7.7631,-7.7631,0,-7.6713,-7.6828,-7.6925,-7.7038,-7.711,-7.7237,-7.7265,-7.7336,-7.7331,-7.7359,-7.7512,-7.7573,-7.768,-7.7724,-7.7719,-7.7906,-7.7878,-7.7834,-7.7748,-7.7915,-7.7984,-7.8013,-7.7642,-7.764,-7.7638,-7.7636,0,0,-7.6959,-7.7078,-7.7113,-7.7164,-7.7258,-7.7346,-7.7471,-7.7579,-7.764,-7.7719,-7.7823,-7.797,-7.793,-7.799,-7.7991,-7.8076,-7.8245,-7.8021,-7.8022,-7.8059,-7.8454,-7.8486,-7.8519,-7.8227,-7.8232,-7.8237,-7.8447,0,-7.7164,-7.7387,-7.74,-7.7601,-7.7707,-7.768,-7.7788,-7.7857,-7.7886,-7.7979,-7.8009,-7.8114,-7.8054,-7.8089,-7.8172,-7.8207,-7.8324,-7.8192,-7.8321,-7.8326,-7.8302,-7.8555,-7.859,-7.8785,-7.8474,-7.8479,-7.8482,0,-7.7432,-7.7522,-7.7735,-7.7815,-7.786,-7.7958,-7.8057,-7.8147,-7.8223,-7.8238,-7.8306,-7.8295,-7.8421,-7.8333,-7.8505,-7.8415,-7.8469,-7.8494,-7.8502,-7.8513,-7.8413,-7.8573,-7.8848,-7.8877,-7.8525,-7.8522,-7.8519,0,-7.759,-7.7764,-7.7914,-7.7958,-7.8055,-7.8125,-7.8168,-7.8239,-7.8303,-7.8389,-7.843,-7.8529,-7.8583,-7.8659,-7.8674,-7.8609,-7.8847,-7.876,-7.8861,-7.8861,-7.8912,-7.8908,-7.9198,-7.8948,-7.8948,-7.8947,-7.8946,0,-7.7816,-7.7947,-7.7986,-7.8078,-7.8224,-7.8236,-7.8379,-7.8417,-7.8481,-7.8578,-7.8559,-7.865,-7.8666,-7.876,-7.8773,-7.8914,-7.8938,-7.8952,-7.8954,-7.8954,-7.8952,-7.8988,-7.8975,-7.8955,-7.8953,-7.8952,-7.895,0,-7.8017,-7.8049,-7.821,-7.8289,-7.8312,-7.8416,-7.8482,-7.857,-7.8597,-7.872,-7.875,-7.8792,-7.8902,-7.8926,-7.9055,-7.9064,-7.9231,-7.9219,-7.9206,-7.9204,-7.9304,-7.9294,-7.9627,-7.9671,-7.9393,-7.9396,-7.9398,0,-7.8159,-7.8259,-7.835,-7.8416,-7.8463,-7.8568,-7.8633,-7.8649,-7.8718,-7.8813,-7.8889,-7.8997,-7.9084,-7.9261,-7.9302,-7.94,-7.939,-7.95,-7.9405,-7.9402,-7.9391,-7.9385,-7.9394,-7.9518,-7.9521,-7.9523,-7.9525,0,-7.8407,-7.8419,-7.8515,-7.8619,-7.8698,-7.8779,-7.8856,-7.891,-7.8936,-7.9014,-7.9128,-7.9196,-7.9329,-7.9436,-7.9536,-7.9577,-7.9556,-7.9556,-7.9584,-7.9584,-7.9572,-7.9579,-7.9255,-7.9547,-7.9545,-7.9544,-7.9542,-7.9542,-7.8582,-7.867,-7.8749,-7.8857,-7.8917,-7.899,-7.9076,-7.9116,-7.9211,-7.9323,-7.9326,-7.945,-7.9523,-7.9654,-7.9702,-7.9797,-7.9763,-7.9804,-7.9815,-7.9824,-7.9833,-7.9558,-7.9815,-7.9815,-7.9814,-7.9814,-7.9813,0,-7.8829,-7.8879,-7.8979,-7.9088,-7.9173,-7.9149,-7.9233,-7.9305,-7.9415,-7.9486,-7.9573,-7.9703,-7.9808,-7.9857,-7.996,-8.0026,-8.0019,-8.0053,-8.0047,-8.0057,-7.9859,-7.9824,-8.0057,-8.0057,-8.0057,-8.0057,-8.0057,-8.0057,-7.8968,-7.9115,-7.9136,-7.9312,-7.936,-7.9483,-7.9533,-7.96,-7.9657,-7.9804,-7.9891,-7.9924,-7.9986,-8.0093,-8.0187,-8.0199,-8.0237,-8.0275,-8.0282,-8.0096,-8.0071,-8.0047,-8.0014,-8.0284,-8.0284,-8.0472,-8.0474,-8.0475]}]]